Tracking 18624 objects as of 26-April-2017
HD Live streaming from Space Station
objects crossing your sky now

COSMOS 909

Track COSMOS 909 now!
10-day predictions
COSMOS 909 is classified as:


NORAD ID: 10010
Int'l Code: 1977-036A
Perigee: 990.0 km
Apogee: 2,120.0 km
Inclination: 65.9 °
Period: 117.0 minutes
Semi major axis: 7925 km
RCS: 1.4527 m2 (large)
Launch date: May 19, 1977
Source: Commonwealth of Independent States (former USSR) (CIS)
Launch site: PLESETSK MISSILE AND SPACE COMPLEX (PKMTR)
Your satellite tracking list
Your tracking list is empty





NASA's NSSDC Master Catalog

Two Line Element Set (TLE):
1 10010U 77036A   17115.49742149 -.00000034 +00000-0 +78011-4 0  9999
2 10010 065.8618 140.0097 0712880 274.0439 077.9430 12.30334590774440
Source of the keplerian elements: AFSPC